Location: Pedholt
(56.0260°N, 10.2097°E)
Time: 02:15:31
(UTC+00:00)

A-11 Canister half - Pass Details

Date: 02 August 2021
Orbit: 1514 x 1685 km, 47.2° (Epoch: 16 September)

Event Time Altitude Azimuth Distance (km) Brightness Sun altitude
Rises 20:34:59 0° 274° (W) 4,876 12.4 -8.2°
Reaches altitude 10° 20:38:17 10° 268° (W) 3,907 11.7 -8.5°
Maximum altitude 20:47:29 43° 202° (SSW) 2,230 9.6 -9.3°
Enters shadow 20:56:21 11° 137° (SE) 3,829 10.4 -10.0°
Drops below altitude 10° 20:56:46 10° 136° (SE) 3,946 - -10.1°
Sets 21:00:08 0° 130° (SE) 4,928 - -10.3°
